STARLINK-32343, 61712

Orbit data source: Space-Track

STARLINK-32343, 61712 is a payload satellite owned by SpaceX/Seattle (US) in LEO that was launched on Wed, 30 Oct 2024 UTC via an FALCON 9 launch vehicle from the Air Force Eastern Test Range (AFETR). Payload-class satellites include a variety of spacecraft equipped with specific instruments for various scientific and technological missions. These include communications satellites like Starlink; space stations such as the ISS; scientific satellites like the Hubble; Earth observation satellites from companies like Planet Labs, Umbra, and HawkEye 360; GPS; miniature CubeSats for education and research; and military/defense satellites.

Loading next visibility...
Identifier
61712, 2024-196F
Orbit
LEO
Last TLE update
1 day ago
Origin
Manufacturer
SpaceX/Seattle
Mission
Operational Commercial Communications
Bus & Motor
STARLINK V2M, Unknown motor
Mass
730 kg wet, ~700 kg dry
Launch date (UTC)
2024-10-30 (6 months ago)
Launch vehicle
FALCON 9
Launch site
Air Force Eastern Test Range (AFETR)
Object type
Payload
Rocket body
Debris
Shape & HBR
Box + 2 Pan, 29 m
Radar Cross Section
36.964 m², Large (>1 m²)

Expand to show TLE details & history

TLE from 1 day ago
0 STARLINK-32343
1 61712U 24196F   25128.59390347  .00000039  00000-0  13466-4 0  9993
2 61712  53.1608  78.5787 0001462  93.7398 266.3770 15.30191387 30446
Epoch: 2025-05-08T14:15Z
Definitive object data (Epoch: 2025-05-08T14:15:13.259Z)
Latitude
-0.00003°
Longitude
-1.88874°
Altitude
476.204 km
Speed
7.629 km/s
True Right ascension
05h 14m 18s
True Declination
0° 00' 00"
Sunlit
Object was in daylight at TLE epoch
Visualization TLE readout
Latitude
-34.04213°
Longitude
-156.71268°
Altitude
486.579 km
Speed
7.621 km/s
Apparent Right ascension
16h 01m 15s
Apparent Declination
-48° 06' 56"
Sunlit
Object is in full shadow
Visualization observer readout
Local Sidereal Time
00:29:02
Azimuth
239.562° WSW
Elevation
-51.766°
Doppler factor
1
Orbital elements
Apogee altitude
476.499 km
Perigee altitude
474.495 km
Semi-major axis
6,853.634 km
Eccentricity
0.0001462
Inclination
53.1608°
RAAN
78.5787°
Arg. of periapsis
93.7398°
True anomaly
266.36028°
Mean anomaly
266.377°
Eccentric anomaly
266.36864°
Mean motion
3.82527 °/min
BSTAR
0.000013466
Orbital period
94.11 mins
Loading maneuver chart data...
Loading SW <> Apogee altitude chart data...
Loading historical data...
Loading historical data...
Loading historical data...
Loading historical data...
Loading historical data...
Loading historical data...
Loading historical data...

STARLINK-32343 Visibility forecast

Observer location: undefined°, undefined°

Span
Click to sort rows by Start time (UTC) header in descending order
Start Az.
Max El. time (UTC)
Max El. Az.
Max El.
End time (UTC)
End Az.
5 mins2025-05-09 23:22:34.942Z242.121° WSW2025-05-09 23:24:34.942Z303.314° NW42.836°2025-05-09 23:27:34.942Z44.068° NE
4 mins2025-05-10 04:19:34.942Z345.728° N2025-05-10 04:21:34.942Z25.305° NE18.073°2025-05-10 04:23:34.942Z63.141° ENE
5 mins2025-05-10 05:57:34.942Z307.612° NW2025-05-10 05:59:34.942Z279.291° WNW44.343°2025-05-10 06:02:34.942Z134.069° SE
|